{"data":{"norad_id":63974,"intl_designator":"2025-099Y","name":"STARLINK-33942","alt_names":[],"object_type":"PAYLOAD","status":"ACTIVE","operator":null,"country":"US","launch_date":"2025-05-13","launch_site_code":"AFETR","launch_vehicle":null,"mission":null,"orbit_class":"UNKNOWN","rcs_meters":null,"size_class":null,"mass_kg":null,"dimensions":null,"purposes":["comms"],"wikipedia_slug":null,"has_3d_model":false,"image_url":null,"decayed_at":null,"tle_current":{"epoch":"2026-09-20T22:18:29.397024Z","epoch_age_seconds":106627,"freshness":"FRESH","line1":"1 63974U 25099Y   26263.92950691  .00014059  00000+0  51933-3 0  9996","line2":"2 63974  43.0022 150.3172 0001404 281.1643  78.9051 15.27587641 77230","mean_motion":15.27587641,"eccentricity":0.0001404,"inclination_deg":43.0022,"raan_deg":150.3172,"arg_perigee_deg":281.1643,"mean_anomaly_deg":78.9051,"bstar":0.00051933,"rev_number":7723,"period_min":94.266277190966,"perigee_km":482.06290891663,"apogee_km":483.98952354775,"semimajor_km":6861.1632162322,"source":"CELESTRAK","updated_at":"2026-09-21T09:00:35.178339Z"}}}